Radiation Dose at Monitoring Post of Fukushima Daini Nuclear Power Station
Date,Time,MP-1(microSv/h),MP-2(microSv/h),MP-3(microSv/h),MP-4(microSv/h),MP-5(microSv/h),MP-6(microSv/h),MP-7(microSv/h),Wind Direction,Wind Velocity(m/s),Rain
2019/06/09,00:00,0.189,0.172,0.288,0.269,0.268,0.144,0.088,north,5.7,No
2019/06/09,00:10,0.190,0.173,0.287,0.271,0.265,0.144,0.088,north,7.0,No
2019/06/09,00:20,0.189,0.173,0.289,0.269,0.267,0.144,0.088,north,6.0,No
2019/06/09,00:30,0.190,0.173,0.287,0.270,0.267,0.144,0.089,north,5.9,No
2019/06/09,00:40,0.189,0.173,0.288,0.269,0.268,0.144,0.089,north-northwest,4.6,No
2019/06/09,00:50,0.190,0.173,0.288,0.271,0.265,0.144,0.089,north-northwest,4.8,No
2019/06/09,01:00,0.188,0.173,0.287,0.270,0.267,0.143,0.089,north-northwest,3.8,No
2019/06/09,01:10,0.189,0.173,0.287,0.269,0.265,0.143,0.088,north,4.0,No
2019/06/09,01:20,0.189,0.173,0.288,0.270,0.267,0.143,0.089,north,4.3,No
2019/06/09,01:30,0.189,0.172,0.288,0.270,0.266,0.144,0.088,north,4.4,No
2019/06/09,01:40,0.189,0.172,0.286,0.270,0.266,0.143,0.089,north,4.8,No
2019/06/09,01:50,0.190,0.175,0.287,0.270,0.266,0.143,0.088,north,4.8,No
2019/06/09,02:00,0.188,0.173,0.286,0.272,0.266,0.143,0.088,north,3.4,No
2019/06/09,02:10,0.188,0.174,0.288,0.270,0.266,0.143,0.089,north-northwest,5.2,Yes
2019/06/09,02:20,0.189,0.173,0.286,0.272,0.266,0.145,0.089,north,5.0,No
2019/06/09,02:30,0.189,0.174,0.288,0.269,0.266,0.143,0.089,north,5.9,No
2019/06/09,02:40,0.190,0.174,0.287,0.271,0.265,0.143,0.088,north,5.3,No
2019/06/09,02:50,0.189,0.172,0.287,0.271,0.268,0.143,0.088,north,6.3,No
2019/06/09,03:00,0.189,0.173,0.289,0.270,0.265,0.143,0.088,north,6.0,No
2019/06/09,03:10,0.189,0.172,0.287,0.270,0.267,0.143,0.088,north,6.6,No
2019/06/09,03:20,0.191,0.174,0.289,0.271,0.265,0.144,0.088,north,6.3,No
2019/06/09,03:30,0.189,0.173,0.286,0.270,0.268,0.143,0.089,north,6.2,No
2019/06/09,03:40,0.189,0.173,0.288,0.269,0.266,0.145,0.088,north,6.6,No
2019/06/09,03:50,0.188,0.174,0.287,0.272,0.267,0.144,0.088,north,6.6,No
2019/06/09,04:00,0.189,0.172,0.287,0.270,0.266,0.143,0.088,north,7.3,No
2019/06/09,04:10,0.188,0.174,0.286,0.271,0.267,0.144,0.088,north,7.0,No
2019/06/09,04:20,0.189,0.172,0.288,0.269,0.267,0.144,0.088,north,7.4,No
2019/06/09,04:30,0.190,0.172,0.287,0.270,0.266,0.144,0.088,north,8.4,No
2019/06/09,04:40,0.189,0.174,0.287,0.271,0.267,0.144,0.089,north,6.8,No
2019/06/09,04:50,0.191,0.173,0.288,0.270,0.266,0.144,0.089,north,6.4,No
2019/06/09,05:00,0.189,0.174,0.288,0.270,0.266,0.144,0.088,north,6.5,No
2019/06/09,05:10,0.191,0.173,0.287,0.270,0.265,0.145,0.089,north,5.8,No
2019/06/09,05:20,0.189,0.173,0.288,0.270,0.267,0.144,0.088,north,6.6,No
2019/06/09,05:30,0.190,0.173,0.287,0.270,0.265,0.144,0.088,north,6.2,No
2019/06/09,05:40,0.188,0.173,0.289,0.270,0.268,0.144,0.088,north,5.2,No
2019/06/09,05:50,0.189,0.173,0.287,0.269,0.265,0.143,0.089,north,5.2,No
2019/06/09,06:00,0.189,0.173,0.289,0.271,0.266,0.144,0.089,north,4.9,No
2019/06/09,06:10,0.189,0.173,0.287,0.270,0.266,0.144,0.089,north-northwest,5.6,No
2019/06/09,06:20,0.191,0.173,0.288,0.272,0.268,0.143,0.087,north,6.0,No
2019/06/09,06:30,0.188,0.173,0.288,0.271,0.265,0.143,0.089,north,5.5,No
2019/06/09,06:40,0.190,0.173,0.289,0.270,0.266,0.143,0.089,north,6.5,No
2019/06/09,06:50,0.189,0.173,0.288,0.269,0.265,0.144,0.088,north,5.7,No
2019/06/09,07:00,0.189,0.172,0.287,0.270,0.268,0.144,0.089,north,4.8,No
2019/06/09,07:10,0.189,0.173,0.287,0.269,0.266,0.144,0.088,north,5.2,No
2019/06/09,07:20,0.189,0.173,0.287,0.271,0.268,0.143,0.089,north,5.2,No
2019/06/09,07:30,0.189,0.172,0.289,0.269,0.265,0.144,0.089,north,6.2,No
2019/06/09,07:40,0.190,0.173,0.287,0.271,0.268,0.144,0.089,north,4.2,No
2019/06/09,07:50,0.189,0.174,0.287,0.269,0.266,0.144,0.088,north,5.2,No
2019/06/09,08:00,0.190,0.173,0.288,0.271,0.263,0.145,0.088,north,5.2,No
2019/06/09,08:10,0.189,0.174,0.286,0.269,0.268,0.143,0.088,north,4.6,No
2019/06/09,08:20,0.190,0.173,0.287,0.268,0.265,0.144,0.089,north,5.1,No
2019/06/09,08:30,0.189,0.172,0.287,0.271,0.266,0.144,0.089,north,5.7,No
2019/06/09,08:40,0.190,0.173,0.286,0.272,0.268,0.144,0.087,north,5.1,No
2019/06/09,08:50,0.189,0.174,0.289,0.269,0.266,0.144,0.089,north,4.8,No
2019/06/09,09:00,0.190,0.172,0.288,0.267,0.266,0.145,0.088,north,5.4,No
2019/06/09,09:10,0.190,0.173,0.287,0.271,0.267,0.144,0.088,north-northeast,4.6,No
2019/06/09,09:20,0.190,0.174,0.287,0.272,0.266,0.143,0.088,north-northeast,4.8,No
2019/06/09,09:30,0.191,0.174,0.286,0.270,0.267,0.145,0.089,north-northeast,4.9,No
2019/06/09,09:40,0.189,0.173,0.290,0.269,0.269,0.145,0.088,north-northeast,3.5,No
2019/06/09,09:50,0.190,0.173,0.289,0.272,0.266,0.144,0.088,north,3.6,No
2019/06/09,10:00,0.190,0.173,0.290,0.272,0.267,0.145,0.090,north,4.2,No
2019/06/09,10:10,0.189,0.173,0.288,0.268,0.268,0.145,0.089,north,3.7,No
2019/06/09,10:20,0.191,0.175,0.287,0.271,0.268,0.144,0.088,north,5.2,No
2019/06/09,10:30,0.188,0.174,0.289,0.271,0.265,0.144,0.088,north,4.3,No
2019/06/09,10:40,0.191,0.173,0.287,0.270,0.269,0.143,0.089,north,5.6,No
2019/06/09,10:50,0.190,0.175,0.288,0.270,0.267,0.144,0.090,north,4.8,No
2019/06/09,11:00,0.190,0.173,0.290,0.272,0.265,0.144,0.087,north-northwest,5.6,No
2019/06/09,11:10,0.192,0.174,0.287,0.273,0.269,0.145,0.089,north-northeast,5.7,No
2019/06/09,11:20,0.189,0.175,0.287,0.271,0.270,0.144,0.089,north-northeast,5.3,No
2019/06/09,11:30,0.191,0.173,0.291,0.269,0.267,0.145,0.089,north-northeast,6.6,No
2019/06/09,11:40,0.191,0.175,0.288,0.272,0.264,0.145,0.088,north-northeast,6.2,No
2019/06/09,11:50,0.191,0.174,0.287,0.273,0.271,0.145,0.088,north-northeast,6.0,No
2019/06/09,12:00,0.192,0.174,0.290,0.271,0.268,0.145,0.089,north-northeast,5.4,No
2019/06/09,12:10,0.189,0.175,0.288,0.274,0.266,0.146,0.089,north-northeast,6.2,No
2019/06/09,12:20,0.191,0.173,0.290,0.272,0.269,0.145,0.089,north-northeast,5.9,No
2019/06/09,12:30,0.191,0.174,0.291,0.271,0.270,0.145,0.089,north-northeast,5.9,No
2019/06/09,12:40,0.190,0.174,0.288,0.273,0.267,0.145,0.089,north-northeast,5.8,No
2019/06/09,12:50,0.192,0.174,0.290,0.273,0.266,0.145,0.089,north-northeast,5.9,No
2019/06/09,13:00,0.191,0.174,0.289,0.271,0.270,0.145,0.090,north-northeast,6.0,No
2019/06/09,13:10,0.191,0.175,0.290,0.274,0.268,0.146,0.088,north-northeast,6.8,No
2019/06/09,13:20,0.190,0.175,0.291,0.272,0.266,0.145,0.089,north-northeast,6.2,No
2019/06/09,13:30,0.192,0.174,0.289,0.273,0.271,0.145,0.089,northeast,6.7,No
2019/06/09,13:40,0.190,0.176,0.291,0.273,0.268,0.145,0.088,north-northeast,7.0,No
2019/06/09,13:50,0.192,0.174,0.288,0.271,0.268,0.146,0.090,northeast,4.6,No
2019/06/09,14:00,0.191,0.174,0.290,0.274,0.270,0.145,0.088,north,4.5,No
2019/06/09,14:10,0.192,0.174,0.290,0.273,0.268,0.146,0.089,north,5.4,No
2019/06/09,14:20,0.190,0.175,0.289,0.272,0.269,0.145,0.089,north-northeast,5.0,No
2019/06/09,14:30,0.191,0.174,0.290,0.274,0.270,0.146,0.089,north-northwest,3.8,No
2019/06/09,14:40,0.192,0.175,0.289,0.272,0.267,0.146,0.089,north,4.2,No
2019/06/09,14:50,0.192,0.175,0.292,0.275,0.271,0.146,0.089,north,5.0,No
2019/06/09,15:00,0.192,0.175,0.289,0.272,0.269,0.146,0.090,north,5.1,No
2019/06/09,15:10,0.192,0.175,0.292,0.275,0.268,0.146,0.090,north,4.4,No
2019/06/09,15:20,0.192,0.174,0.289,0.274,0.270,0.145,0.089,north,4.5,No
2019/06/09,15:30,0.192,0.175,0.291,0.273,0.268,0.146,0.089,north,4.0,No
2019/06/09,15:40,0.191,0.175,0.288,0.275,0.270,0.146,0.089,north-northwest,4.1,No
2019/06/09,15:50,0.191,0.174,0.291,0.271,0.269,0.146,0.090,north-northwest,5.7,No
2019/06/09,16:00,0.191,0.175,0.290,0.276,0.270,0.146,0.089,north-northwest,4.9,No
2019/06/09,16:10,0.191,0.174,0.292,0.272,0.269,0.147,0.090,north-northwest,4.5,No
2019/06/09,16:20,0.191,0.175,0.290,0.276,0.270,0.145,0.089,north-northwest,5.4,No
2019/06/09,16:30,0.191,0.173,0.291,0.272,0.269,0.147,0.090,north-northwest,4.5,No
2019/06/09,16:40,0.191,0.175,0.289,0.273,0.267,0.145,0.089,north,3.4,No
2019/06/09,16:50,0.191,0.174,0.291,0.273,0.270,0.145,0.089,north,4.6,No
2019/06/09,17:00,0.191,0.175,0.290,0.273,0.268,0.145,0.089,north,4.1,No
2019/06/09,17:10,0.191,0.175,0.290,0.275,0.270,0.146,0.089,north,4.3,No
2019/06/09,17:20,0.190,0.175,0.290,0.274,0.268,0.146,0.090,north,4.9,No
2019/06/09,17:30,0.192,0.176,0.291,0.273,0.270,0.145,0.089,north,4.9,No
2019/06/09,17:40,0.191,0.175,0.290,0.274,0.269,0.147,0.089,north,5.2,No
2019/06/09,17:50,0.192,0.175,0.292,0.275,0.271,0.145,0.089,north,5.5,No
2019/06/09,18:00,0.190,0.175,0.290,0.274,0.269,0.146,0.089,north,5.3,No
2019/06/09,18:10,0.191,0.175,0.292,0.274,0.271,0.145,0.090,north,5.0,No
2019/06/09,18:20,0.192,0.174,0.290,0.273,0.270,0.146,0.089,north,4.5,No
2019/06/09,18:30,0.192,0.175,0.292,0.274,0.271,0.145,0.089,north,4.1,No
2019/06/09,18:40,0.191,0.175,0.289,0.273,0.269,0.146,0.089,north,4.0,No
2019/06/09,18:50,0.191,0.175,0.291,0.274,0.270,0.146,0.090,north-northwest,3.9,No
2019/06/09,19:00,0.192,0.175,0.290,0.273,0.268,0.147,0.088,north-northwest,4.0,No
2019/06/09,19:10,0.193,0.175,0.292,0.272,0.270,0.145,0.089,north-northwest,4.4,No
2019/06/09,19:20,0.191,0.177,0.290,0.275,0.268,0.146,0.089,north,4.8,No
2019/06/09,19:30,0.190,0.175,0.291,0.272,0.269,0.145,0.089,north-northwest,4.2,No
2019/06/09,19:40,0.192,0.177,0.291,0.274,0.269,0.147,0.089,north-northwest,4.3,No
2019/06/09,19:50,0.191,0.175,0.290,0.274,0.270,0.146,0.089,north-northwest,4.1,No
2019/06/09,20:00,0.192,0.176,0.290,0.275,0.268,0.147,0.090,north-northwest,4.3,No
2019/06/09,20:10,0.190,0.175,0.290,0.273,0.271,0.146,0.089,north-northwest,4.8,No
2019/06/09,20:20,0.192,0.176,0.293,0.275,0.269,0.146,0.089,north-northwest,5.4,No
2019/06/09,20:30,0.191,0.176,0.290,0.275,0.270,0.147,0.089,north-northwest,5.7,No
2019/06/09,20:40,0.192,0.175,0.291,0.272,0.270,0.146,0.090,north-northwest,5.4,No
2019/06/09,20:50,0.191,0.176,0.291,0.274,0.269,0.147,0.089,north-northwest,5.2,No
2019/06/09,21:00,0.191,0.174,0.292,0.273,0.270,0.146,0.090,north-northwest,5.7,No
2019/06/09,21:10,0.192,0.175,0.291,0.275,0.270,0.147,0.090,north-northwest,5.3,No
2019/06/09,21:20,0.191,0.175,0.290,0.273,0.270,0.146,0.088,north-northwest,6.2,No
2019/06/09,21:30,0.192,0.174,0.293,0.276,0.268,0.147,0.090,north-northwest,6.6,No
2019/06/09,21:40,0.191,0.176,0.291,0.275,0.270,0.145,0.090,north-northwest,6.4,No
2019/06/09,21:50,0.193,0.175,0.291,0.274,0.269,0.147,0.090,north-northwest,6.6,No
2019/06/09,22:00,0.191,0.175,0.292,0.274,0.271,0.146,0.089,north-northwest,7.7,No
2019/06/09,22:10,0.191,0.174,0.292,0.274,0.268,0.147,0.090,north-northwest,7.8,No
2019/06/09,22:20,0.192,0.176,0.291,0.274,0.271,0.146,0.090,north-northwest,7.4,No
2019/06/09,22:30,0.193,0.176,0.292,0.275,0.268,0.146,0.090,north-northwest,7.0,No
2019/06/09,22:40,0.192,0.176,0.292,0.274,0.269,0.147,0.089,north-northwest,6.2,No
2019/06/09,22:50,0.192,0.177,0.290,0.273,0.270,0.146,0.090,north-northwest,5.5,Yes
2019/06/09,23:00,0.192,0.176,0.293,0.274,0.270,0.146,0.089,north-northwest,6.6,Yes
2019/06/09,23:10,0.190,0.176,0.291,0.274,0.269,0.147,0.090,northwest,5.5,Yes
2019/06/09,23:20,0.195,0.178,0.292,0.276,0.271,0.148,0.092,north-northwest,5.1,Yes
2019/06/09,23:30,0.194,0.178,0.294,0.276,0.273,0.149,0.092,north-northwest,5.7,Yes
2019/06/09,23:40,0.195,0.179,0.294,0.276,0.270,0.149,0.093,north-northwest,5.6,Yes
2019/06/09,23:50,0.196,0.180,0.296,0.277,0.273,0.150,0.094,north-northwest,6.2,Yes
